Miscellaneous Local Product
Issued by NWS North Platte, NE

Home | Current Version | Previous Version | Graphics & Text | Print | Product List | Glossary On
Versions: 1 2 3 4 5 6 7 8 9 10 11 12 13 14 15 16 17 18 19 20 21 22 23 24 25 26 27 28 29 30 31 32 33 34 35 36 37 38 39 40 41 42 43 44 45 46 47 48 49 50
000
AXUS43 KLBF 301610
MISLBF


WESTERN AND NORTH CENTRAL NEBRASKA HOURLY WEATHER ROUNDUP
NATIONAL WEATHER SERVICE NORTH PLATTE NE
1100 AM CDT THU JUL 30 2015

***STATIONS NOT REPORTING VARIABLES SUCH AS SKY/WEATHER OR
PRESSURE ARE PROVIDED BY THE NEBRASKA DEPARTMENT OF
ROADS...RAWS...AND APRS NETWORKS...AND ARE NOT UNDER
NATIONAL WEATHER SERVICE QUALITY CONTROL***

...OBSERVATIONS IN AND NEAR THE EASTERN PANHANDLE OF NEBRASKA...

CITY           SKY/WX    TMP DP  RH WIND       PRES   REMARKS
PINE RIDGE     SUNNY     75  53  46 CALM      30.27S
CHADRON        SUNNY     76  50  40 CALM      30.27F
ALLIANCE       SUNNY     77  54  44 NW3       30.29S
SIDNEY         SUNNY     78  59  51 W6        30.32S
BIG SPRINGS      N/A     78  66  66 NW3         N/A
$$

...OBSERVATIONS IN NORTH CENTRAL NEBRASKA...

CITY           SKY/WX    TMP DP  RH WIND       PRES   REMARKS
VALENTINE      MOSUNNY   81  52  36 W7        30.22F
THEDFORD       SUNNY     80  58  48 SW9G16    30.26F
AINSWORTH      PTSUNNY   79  57  46 W14       30.23S
O`NEILL        SUNNY     79  59  51 W12       30.23S
ORD            SUNNY     80  61  52 W9        30.23S
BROKEN BOW     SUNNY     79  63  57 SW9       30.25S
SPRINGVIEW       N/A     80  59  48 SW5         N/A
CHAMBERS         N/A     82  60  46 SW8         N/A
EWING            N/A     80  65  61 SW5G12      N/A
$$

...OBSERVATIONS IN SOUTHWEST NEBRASKA AND FAR NORTHEAST COLORADO...

CITY           SKY/WX    TMP DP  RH WIND       PRES   REMARKS
WRAY           FAIR      82  64  56 S7        30.29S
HOLYOKE        FAIR      79  64  61 SW5       30.29S
IMPERIAL       SUNNY     79  63  57 S9        30.28S
OGALLALA       SUNNY     76  64  67 W6        30.28R
NORTH PLATTE   SUNNY     79  64  60 VRB7      30.25F
MCCOOK         MOSUNNY   80  64  58 S9        30.26F
LEXINGTON      SUNNY     79  67  66 SW12      30.26S
PAXTON           N/A     76  65  70 CALM        N/A
BRADY            N/A     75  66  74 CALM        N/A
CALLAWAY         N/A     76  67  75 SW8         N/A
$$

...NORTH PLATTE AREA...

CITY           SKY/WX    TMP DP  RH WIND       PRES   REMARKS
AIRPORT        SUNNY     79  64  60 VRB7      30.25F
DOWNTOWN         N/A     80  65  61 S3          N/A
SANDRIDGE        N/A     78  64  61 S6          N/A
HILLCREST        N/A     78  65  64 SW7         N/A
$$

...SOME WEATHER OBSERVATIONS FROM AROUND THE REGION...

CITY           SKY/WX    TMP DP  RH WIND       PRES   REMARKS
DENVER         MOSUNNY   76  48  37 VRB7      30.36S
LARAMIE        SUNNY     70  31  23 S5        30.49S
CHEYENNE       SUNNY     74  45  35 N12       30.41S
SCOTTSBLUFF    SUNNY     75  54  47 CALM      30.30F
RAPID CITY     SUNNY     80  51  36 CALM      30.26S
PIERRE         SUNNY     80  50  34 W5        30.16R
WINNER         FAIR      83  53  35 SW6       30.18S
SIOUX FALLS    SUNNY     78  61  55 W7        30.15S
OMAHA          MOSUNNY   82  60  47 CALM      30.20F
GRAND ISLAND   SUNNY     82  55  39 SW16      30.24S
KANSAS CITY    PTSUNNY   81  66  60 W6        30.23R
WICHITA        TSTM      71  68  90 SE8       30.25F
HAYS           MOSUNNY   75  63  64 S5        30.26F
LIBERAL        CLOUDY    72  66  83 NE7       30.28F
GOODLAND       SUNNY     77  65  66 S8        30.30S
$$



USA.gov is the U.S. government's official web portal to all federal, state and local government web resources and services.